Date String (YYYY-MM-DD hh:mm:ss) UTC,Instrument flags,absolute air pressure of the measurement (hPa),sample flow rate (lpm),inlet stack bypass flow (lpm),air temperature of the measurement (°C),ambient temperature measured by the external sensor (°C),aerosol sample conditioner tube jacket temperature (°C),OPC LED temperature (°C),internal box temperature (°C),relative humidity of the measurement (%),span deviation,mass concentration of particles derived from Lorenz-Mie calculation of OPC scattering (μg/m³),mass concentration of particles derived from Lorenz-Mie calculation of OPC scattering (μg/m³),mass concentration of particles derived from Lorenz-Mie calculation of OPC scattering (μg/m³)
DateTimeUTC,F1_M11,P_M11,Q1_M11,Q2_M11,T1_M11,T2_M11,T3_M11,T4_M11,T5_M11,U1_M11,ZSPAN_M11,X2_M11,X0_M11,X1_M11
2024-06-07 03:00:00,SystemResetWarning,0829.7,5.00,000.00,029.6,029.1,000.0,037.5,031.4,020.5,0000.0,0004.24,0023.92,0001.88
2024-06-07 03:01:00,SystemResetWarning,0829.7,5.00,000.00,029.7,029.2,000.0,037.6,031.5,020.8,0000.0,0004.25,0024.58,0001.87
2024-06-07 03:02:00,SystemResetWarning,0829.7,4.99,000.00,029.6,028.2,000.0,037.7,031.0,019.8,0000.0,0004.20,0024.36,0001.87
2024-06-07 03:03:00,SystemResetWarning,0829.7,5.02,000.00,029.3,026.4,000.0,037.7,030.1,021.1,0000.0,0004.19,0025.62,0001.87
2024-06-07 03:04:00,SystemResetWarning,0829.7,5.01,000.00,029.1,026.5,000.0,037.7,030.1,021.5,0000.0,0004.22,0025.87,0001.90
2024-06-07 03:05:00,SystemResetWarning,0829.7,5.00,000.00,029.0,026.9,000.0,037.6,030.3,021.4,0000.0,0004.17,0026.29,0001.89
2024-06-07 03:06:00,SystemResetWarning,0829.7,5.00,000.00,029.1,027.3,000.0,037.5,030.5,021.4,0000.0,0004.17,0025.00,0001.91
2024-06-07 03:07:00,SystemResetWarning,0829.7,5.00,000.00,029.1,027.7,000.0,037.5,030.7,021.3,0000.0,0004.15,0024.14,0001.92
2024-06-07 03:08:00,SystemResetWarning,0829.7,4.99,000.00,029.2,028.0,000.0,037.5,030.9,020.9,0000.0,0004.09,0024.19,0001.91
2024-06-07 03:09:00,SystemResetWarning,0829.7,5.00,000.00,029.3,028.3,000.0,037.5,031.0,020.9,0000.0,0004.05,0024.22,0001.89
2024-06-07 03:10:00,SystemResetWarning,0829.7,5.00,000.00,029.3,028.5,000.0,037.5,031.2,021.0,0000.0,0003.99,0022.99,0001.87
2024-06-07 03:11:00,SystemResetWarning,0829.8,5.00,000.00,029.4,028.7,000.0,037.5,031.3,021.1,0000.0,0004.00,0021.96,0001.86
2024-06-07 03:12:00,SystemResetWarning,0829.8,5.00,000.00,029.5,028.9,000.0,037.6,031.4,020.2,0000.0,0003.98,0021.23,0001.86
2024-06-07 03:13:00,SystemResetWarning,0829.8,4.99,000.00,029.6,029.1,000.0,037.6,031.4,020.0,0000.0,0004.01,0020.93,0001.86
2024-06-07 03:14:00,SystemResetWarning,0829.8,4.99,000.00,029.7,029.2,000.0,037.6,031.5,019.9,0000.0,0004.05,0020.79,0001.87
2024-06-07 03:15:00,SystemResetWarning,0829.8,4.99,000.00,029.7,028.8,000.0,037.7,031.3,020.5,0000.0,0004.02,0020.89,0001.85
2024-06-07 03:16:00,SystemResetWarning,0829.8,5.00,000.00,029.4,026.4,000.0,037.7,030.2,020.6,0000.0,0004.09,0021.13,0001.84
2024-06-07 03:17:00,SystemResetWarning,0829.7,5.00,000.00,028.9,025.0,000.0,037.7,029.4,021.4,0000.0,0004.12,0021.60,0001.82
2024-06-07 03:18:00,SystemResetWarning,0829.8,5.01,000.00,028.7,025.5,000.0,037.6,029.5,021.4,0000.0,0004.16,0022.05,0001.83
2024-06-07 03:19:00,SystemResetWarning,0829.8,5.00,000.00,028.7,026.0,000.0,037.5,029.8,021.4,0000.0,0004.14,0022.12,0001.83
2024-06-07 03:20:00,SystemResetWarning,0829.9,5.00,000.00,028.7,026.5,000.0,037.4,030.1,021.2,0000.0,0004.11,0021.02,0001.84
2024-06-07 03:21:00,SystemResetWarning,0829.9,5.01,000.00,028.8,027.0,000.0,037.3,030.3,021.3,0000.0,0004.12,0019.55,0001.84
2024-06-07 03:22:00,SystemResetWarning,0829.8,5.00,000.00,028.8,027.4,000.0,037.3,030.5,021.1,0000.0,0004.05,0018.69,0001.84
2024-06-07 03:23:00,SystemResetWarning,0829.9,5.00,000.00,028.9,027.8,000.0,037.3,030.7,020.8,0000.0,0004.06,0018.72,0001.85
2024-06-07 03:24:00,SystemResetWarning,0829.9,4.99,000.00,029.0,028.0,000.0,037.3,030.8,020.6,0000.0,0004.00,0018.12,0001.83
2024-06-07 03:25:00,SystemResetWarning,0829.9,5.00,000.00,029.1,028.3,000.0,037.3,030.9,020.1,0000.0,0003.94,0016.85,0001.82
2024-06-07 03:26:00,SystemResetWarning,0830.0,5.00,000.00,029.2,028.5,000.0,037.3,031.0,020.5,0000.0,0003.88,0016.06,0001.81
2024-06-07 03:27:00,SystemResetWarning,0830.0,5.00,000.00,029.3,028.7,000.0,037.4,031.1,020.9,0000.0,0003.82,0016.24,0001.80
2024-06-07 03:28:00,SystemResetWarning,0830.1,5.00,000.00,029.3,028.8,000.0,037.4,031.2,020.5,0000.0,0003.80,0015.42,0001.82
2024-06-07 03:29:00,SystemResetWarning,0830.0,5.00,000.00,029.4,029.0,000.0,037.4,031.3,020.6,0000.0,0003.75,0014.61,0001.81
2024-06-07 03:30:00,SystemResetWarning,0830.0,5.00,000.00,029.5,029.1,000.0,037.5,031.4,020.6,0000.0,0003.69,0013.72,0001.81
2024-06-07 03:31:00,SystemResetWarning,0830.0,4.99,000.00,029.6,029.2,000.0,037.5,031.5,020.4,0000.0,0003.68,0014.22,0001.81
2024-06-07 03:32:00,SystemResetWarning,0830.0,5.00,000.00,029.7,029.3,000.0,037.6,031.6,020.4,0000.0,0003.66,0015.91,0001.82
2024-06-07 03:33:00,SystemResetWarning,0830.0,5.01,000.00,029.7,029.4,000.0,037.6,031.6,020.2,0000.0,0003.73,0017.20,0001.82
2024-06-07 03:34:00,SystemResetWarning,0830.0,4.98,000.00,029.7,028.3,000.0,037.7,031.0,020.3,0000.0,0003.71,0016.85,0001.83
2024-06-07 03:35:00,SystemResetWarning,0829.9,5.01,000.00,029.3,026.5,000.0,037.8,030.2,021.1,0000.0,0003.73,0017.66,0001.83
2024-06-07 03:36:00,SystemResetWarning,0829.9,5.01,000.00,029.1,026.5,000.0,037.8,030.1,020.9,0000.0,0003.77,0017.98,0001.86
2024-06-07 03:37:00,SystemResetWarning,0829.8,4.99,000.00,029.1,026.9,000.0,037.7,030.3,020.6,0000.0,0003.83,0017.84,0001.88
2024-06-07 03:38:00,SystemResetWarning,0829.9,5.00,000.00,029.1,027.3,000.0,037.6,030.5,020.4,0000.0,0003.85,0016.72,0001.90
2024-06-07 03:39:00,SystemResetWarning,0830.0,5.00,000.00,029.1,027.6,000.0,037.5,030.7,020.7,0000.0,0003.83,0016.51,0001.90
2024-06-07 03:40:00,SystemResetWarning,0830.0,5.00,000.00,029.2,028.0,000.0,037.5,030.9,020.8,0000.0,0003.86,0016.79,0001.93
2024-06-07 03:41:00,SystemResetWarning,0830.0,4.99,000.00,029.3,028.2,000.0,037.5,031.0,020.7,0000.0,0003.93,0017.45,0001.94
2024-06-07 03:42:00,SystemResetWarning,0830.0,5.00,000.00,029.3,028.5,000.0,037.5,031.1,020.7,0000.0,0003.96,0017.69,0001.95
2024-06-07 03:43:00,SystemResetWarning,0830.0,5.00,000.00,029.4,028.7,000.0,037.6,031.2,020.4,0000.0,0003.95,0017.60,0001.95
2024-06-07 03:44:00,SystemResetWarning,0830.0,5.00,000.00,029.5,028.9,000.0,037.6,031.3,020.5,0000.0,0003.92,0016.53,0001.95
2024-06-07 03:45:00,SystemResetWarning,0830.0,5.00,000.00,029.6,029.0,000.0,037.6,031.4,020.2,0000.0,0003.91,0016.67,0001.94
2024-06-07 03:46:00,SystemResetWarning,0830.0,5.00,000.00,029.7,029.1,000.0,037.6,031.5,020.1,0000.0,0003.90,0015.71,0001.96
2024-06-07 03:47:00,SystemResetWarning,0830.0,5.00,000.00,029.7,029.2,000.0,037.7,031.6,020.4,0000.0,0003.93,0015.01,0001.93
2024-06-07 03:48:00,SystemResetWarning,0830.0,4.99,000.00,029.8,029.4,000.0,037.7,031.6,020.2,0000.0,0003.94,0016.00,0001.93
2024-06-07 03:49:00,SystemResetWarning,0829.9,4.99,000.00,029.8,029.2,000.0,037.8,031.5,020.0,0000.0,0003.97,0016.94,0001.93
2024-06-07 03:50:00,SystemResetWarning,0829.8,5.00,000.00,029.6,027.0,000.0,037.9,030.4,020.3,0000.0,0003.93,0016.76,0001.92
2024-06-07 03:51:00,SystemResetWarning,0829.7,5.02,000.00,029.2,026.3,000.0,037.9,030.1,020.7,0000.0,0003.96,0016.81,0001.88
2024-06-07 03:52:00,SystemResetWarning,0829.8,4.99,000.00,029.1,026.7,000.0,037.8,030.2,020.7,0000.0,0003.94,0017.34,0001.85
2024-06-07 03:53:00,SystemResetWarning,0829.8,5.01,000.00,029.2,027.1,000.0,037.7,030.5,020.8,0000.0,0003.92,0017.98,0001.82
2024-06-07 03:54:00,SystemResetWarning,0829.8,5.00,000.00,029.2,027.5,000.0,037.7,030.7,020.9,0000.0,0003.92,0017.17,0001.80
2024-06-07 03:55:00,SystemResetWarning,0829.8,5.00,000.00,029.3,027.9,000.0,037.6,030.9,020.7,0000.0,0003.97,0017.52,0001.79
2024-06-07 03:56:00,SystemResetWarning,0829.8,5.00,000.00,029.3,028.2,000.0,037.6,031.0,020.6,0000.0,0003.94,0017.32,0001.77
2024-06-07 03:57:00,SystemResetWarning,0829.7,5.00,000.00,029.4,028.5,000.0,037.6,031.1,020.6,0000.0,0003.95,0018.48,0001.75
2024-06-07 03:58:00,SystemResetWarning,0829.7,4.99,000.00,029.5,028.7,000.0,037.6,031.3,020.6,0000.0,0003.92,0019.15,0001.76
2024-06-07 03:59:00,SystemResetWarning,0829.8,5.00,000.00,029.5,028.9,000.0,037.7,031.3,020.6,0000.0,0003.90,0018.95,0001.72
